Hourly Data Report for October 10, 2016

All times are specified in Local Standard Time (LST). Add 1 hour to adjust for Daylight Saving Time where and when it is observed.

HALL BEACH A
NUNAVUT

68°46'33.000" N
81°14'33.000" W
9.10 m
2402354
71293
YUX

Related Data

No related data is available for this station

Download Data

Hourly Data (October 2016)
Hourly Data Report for October 10, 2016
Temp Definition
°C
Dew Point Temp Definition
°C
Rel Hum Definition
%
Wind Dir Definition
10's deg

Wind Spd Definition
km/h
Visibility Definition
km
Stn Press Definition
kPa
Hmdx Definition


Wind Chill Definition


Weather Definition


TIME
00:00 Legend Double Dagger -5.1 -5.6 96 29 13 2.4 100.66   -10 Snow
01:00 Legend Double Dagger -6.4 -7.5 92 32 35 4.0 100.69   -15 Snow
02:00 Legend Double Dagger -8.8 -10.3 89 31 26 16.1 100.73   -17 LegendNANA
03:00 Legend Double Dagger -13.7 -15.1 89 30 26 16.1 100.75   -24 LegendNANA
04:00 Legend Double Dagger -15.6 -16.9 90 30 26 16.1 100.75   -26 LegendNANA
05:00 Legend Double Dagger -14.2 -15.2 92 29 22 16.1 100.74   -24 LegendNANA
06:00 Legend Double Dagger -14.5 -15.6 92 26 11 16.1 100.73   -21 LegendNANA
07:00 Legend Double Dagger -16.3 -17.9 88 26 15 16.1 100.73   -25 LegendNANA
08:00 Legend Double Dagger -14.2 -15.5 90 29 21 16.1 100.73   -23 LegendNANA
09:00 Legend Double Dagger -12.2 -13.4 91 31 22 16.1 100.72   -21 LegendNANA
10:00 Legend Double Dagger -11.6 -12.8 91 31 13 16.1 100.72   -18 LegendNANA
11:00 Legend Double Dagger -11.2 -12.6 90 29 18 16.1 100.71   -19 LegendNANA
12:00 Legend Double Dagger -10.1 -11.6 89 28 18 16.1 100.71   -18 LegendNANA
13:00 Legend Double Dagger -12.5 -13.8 90 27 15 16.1 100.72   -20 LegendNANA
14:00 Legend Double Dagger -13.4 -14.8 89 27 11 16.1 100.76   -20 LegendNANA
15:00 Legend Double Dagger -13.5 -14.3 94 26 17 16.1 100.76   -22 LegendNANA
16:00 Legend Double Dagger -11.9 -12.7 94 29 8 16.1 100.77   -17 LegendNANA
17:00 Legend Double Dagger -12.8 -14.1 90 26 8 16.1 100.76   -18 LegendNANA
18:00 Legend Double Dagger -12.4 -13.5 91 28 11 16.1 100.78   -18 LegendNANA
19:00 Legend Double Dagger -14.5 -15.9 89 29 13 1.6 100.79   -22 Fog
20:00 Legend Double Dagger -14.6 -16.2 88 27 18 16.1 100.80   -23 LegendNANA
21:00 Legend Double Dagger -15.0 -16.4 89 27 15 16.1 100.77   -23 LegendNANA
22:00 Legend Double Dagger -14.0 -15.2 91 26 15 16.1 100.78   -22 LegendNANA
23:00 Legend Double Dagger -13.5 -14.8 90 24 13 16.1 100.76   -20 LegendNANA

Notes on Data Quality.

Legend

  • E = Estimated
  • M = Missing
  • NA = Not Available
  • ‡ = Partner data that is not subject to review by the National Climate Archives
Date modified: